Tracking 29892 objects as of 21-Nov-2024
HD Live streaming from Space Station
objects crossing your sky now

OBJECT X

Track OBJECT X now!
10-day predictions


NORAD ID: 57025
Int'l Code: 2023-085X
Perigee: 474.3 km
Apogee: 485.1 km
Inclination: 97.5 °
Period: 94.1 minutes
Semi major axis: 6850 km
RCS: Unknown
Launch date: June 15, 2023
Source: People's Republic of China (PRC)
Launch site: Taiyaun Space Center, China (TSC)
Your satellite tracking list
Your tracking list is empty




NASA's NSSDC Master Catalog

Two Line Element Set (TLE):
1 57025U 23085X   24325.91651466  .00040631  00000-0  13482-2 0  9995
2 57025  97.4699  69.2702 0007866 265.6291  94.4052 15.31097311 79505
Source of the keplerian elements: AFSPC